Fargo, ND

1:52 AM CDT on June 26, 2017 (GMT -0500)
Hector International

Weather History for KFAR - September, 2013

Change the Weather History Date:

Thursday, September 19, 2013

  Actual Average Record
Temperature  
Mean Temperature 66 °F 58 °F  
Max Temperature 76 °F 69 °F 96 °F (1984)
Min Temperature 55 °F 46 °F 27 °F (1896)
Degree Days  
Heating Degree Days 0 8  
Month to date heating degree days 44 103  
Since 1 July heating degree days 78 153  
Cooling Degree Days 1 1  
Month to date cooling degree days 62 37  
Year to date cooling degree days 680 542  
Growing Degree Days 16 (Base 50)    
Moisture  
Dew Point 57 °F    
Average Humidity 67    
Maximum Humidity 93    
Minimum Humidity 41    
Precipitation  
Precipitation 0.02 in 0.07 in 1.18 in (1907)
Month to date precipitation 3.02 1.75  
Year to date precipitation 24.94 17.81  
Snow  
Snow 0.00 in 0.00 in 0.00 in ()
Month to date snowfall 0.0 0.0  
Since 1 July snowfall 0.0 0.0  
Since 1 September snowfall 0.0 0.0  
Snow Depth 0.00 in    
Sea Level Pressure  
Sea Level Pressure 29.70 in    
Wind  
Wind Speed 11 mph (WNW)    
Max Wind Speed 23 mph    
Max Gust Speed 31 mph    
Visibility 6 miles    
Events Fog    
T = Trace of Precipitation, MM = Missing Value Source: NWS Daily Summary

Daily Weather History Graph

Daily Weather History Graph

Search for Another Location

Airport or City:

Trip Planner

Search our weather history database for the weather conditions in past years. The results will help you decide how hot, cold, wet, or windy it might be!

Date:

Astronomy

Sep. 19, 2013 Rise Set
Actual Time 7:10 AM CDT 7:30 PM CDT
Civil Twilight 6:40 AM CDT 8:00 PM CDT
Nautical Twilight 6:04 AM CDT 8:36 PM CDT
Astronomical Twilight 5:26 AM CDT 9:13 PM CDT
Moon 7:23 PM CDT (9/19) 7:24 AM CDT (9/19)
Length of Visible Light 13h 20m
Length of Day
12h 19m
Full, 100% of the Moon is Illuminated
Sep 19
Full
Sep 26
Last Quarter
Oct 4
New
Oct 11
First Quarter
Oct 18
Full

Hourly Weather History & Observations

Time (CDT) Temp. Dew Point Humidity Pressure Visibility Wind Dir Wind Speed Gust Speed Precip Events Conditions
12:53 AM 68.0 °F 64.0 °F 87% 29.61 in 9.0 mi East 8.1 mph - 0.02 in   Scattered Clouds
1:22 AM 69.8 °F 64.4 °F 83% 29.62 in 9.0 mi Calm Calm - N/A   Clear
1:53 AM 66.0 °F 62.1 °F 87% 29.60 in 7.0 mi NNE 6.9 mph - N/A   Clear
2:53 AM 62.1 °F 60.1 °F 93% 29.60 in 3.0 mi Calm Calm - N/A   Clear
2:57 AM 62.6 °F 60.8 °F 94% 29.60 in 1.8 mi Calm Calm - N/A   Clear
3:11 AM 62.6 °F 60.8 °F 94% 29.60 in 0.8 mi Calm Calm - N/A   Clear
3:22 AM 62.6 °F 60.8 °F 94% 29.60 in 1.2 mi West 5.8 mph - N/A   Clear
3:29 AM 62.6 °F 60.8 °F 94% 29.60 in 3.0 mi WNW 4.6 mph - N/A   Clear
3:48 AM 60.8 °F 59.0 °F 94% 29.60 in 2.5 mi Calm Calm - N/A   Clear
3:53 AM 60.1 °F 57.9 °F 93% 29.59 in 2.0 mi Calm Calm - N/A   Clear
4:04 AM 60.8 °F 59.0 °F 94% 29.60 in 1.8 mi Variable 4.6 mph - N/A   Partly Cloudy
4:19 AM 60.8 °F 57.2 °F 88% 29.60 in 0.8 mi Calm Calm - N/A   Mist
4:29 AM 59.0 °F 57.2 °F 94% 29.60 in 0.2 mi Calm Calm - N/A Fog Fog
4:37 AM 57.2 °F 55.4 °F 94% 29.61 in 0.2 mi Calm Calm - N/A Fog Fog
4:53 AM 59.0 °F 57.0 °F 93% 29.60 in 0.2 mi Calm Calm - N/A Fog Fog
5:04 AM 59.0 °F 57.2 °F 94% 29.62 in 1.0 mi WSW 4.6 mph - N/A   Mist
5:13 AM 59.0 °F 57.2 °F 94% 29.62 in 2.0 mi Calm Calm - N/A   Clear
5:22 AM 60.8 °F 57.2 °F 88% 29.63 in 3.0 mi Calm Calm - N/A   Clear
5:53 AM 60.1 °F 57.9 °F 93% 29.64 in 3.0 mi Calm Calm - N/A   Clear
6:53 AM 62.1 °F 60.1 °F 93% 29.65 in 3.0 mi Calm Calm - N/A   Clear
7:53 AM 62.1 °F 60.1 °F 93% 29.68 in 10.0 mi West 5.8 mph - N/A   Clear
8:39 AM 64.4 °F 60.8 °F 88% 29.70 in 6.0 mi WNW 6.9 mph - N/A   Mostly Cloudy
8:53 AM 64.0 °F 61.0 °F 90% 29.69 in 5.0 mi WNW 6.9 mph - N/A   Mostly Cloudy
9:06 AM 64.4 °F 60.8 °F 88% 29.70 in 5.0 mi WNW 9.2 mph - N/A   Scattered Clouds
9:18 AM 64.4 °F 60.8 °F 88% 29.70 in 5.0 mi WNW 9.2 mph - N/A   Mostly Cloudy
9:53 AM 64.0 °F 59.0 °F 84% 29.73 in 10.0 mi NW 17.3 mph 31.1 mph N/A   Mostly Cloudy
10:05 AM 64.4 °F 59.0 °F 83% 29.74 in 10.0 mi NW 12.7 mph - N/A   Scattered Clouds
10:53 AM 64.9 °F 57.9 °F 78% 29.75 in 9.0 mi NW 15.0 mph - N/A   Scattered Clouds
11:53 AM 69.1 °F 57.0 °F 65% 29.75 in 10.0 mi NW 16.1 mph - N/A   Partly Cloudy
12:53 PM 70.0 °F 55.0 °F 59% 29.77 in 10.0 mi NW 15.0 mph - N/A   Partly Cloudy
1:53 PM 71.1 °F 53.1 °F 53% 29.76 in 10.0 mi WNW 13.8 mph - N/A   Clear
2:53 PM 73.0 °F 53.1 °F 49% 29.76 in 10.0 mi West 12.7 mph - N/A   Partly Cloudy
3:53 PM 75.0 °F 50.0 °F 41% 29.75 in 10.0 mi West 12.7 mph 23.0 mph N/A   Clear
4:53 PM 72.0 °F 48.9 °F 44% 29.77 in 10.0 mi West 20.7 mph - N/A   Clear
5:53 PM 71.1 °F 48.9 °F 45% 29.78 in 10.0 mi West 21.9 mph 25.3 mph N/A   Scattered Clouds
6:53 PM 66.0 °F 50.0 °F 56% 29.79 in 10.0 mi WNW 17.3 mph - N/A   Mostly Cloudy
7:53 PM 63.0 °F 52.0 °F 67% 29.82 in 10.0 mi West 16.1 mph - N/A   Overcast
8:53 PM 61.0 °F 52.0 °F 72% 29.84 in 10.0 mi West 11.5 mph - N/A   Overcast
9:32 PM 60.8 °F 51.8 °F 72% 29.83 in 10.0 mi West 6.9 mph - N/A   Mostly Cloudy
9:53 PM 61.0 °F 52.0 °F 72% 29.84 in 10.0 mi West 10.4 mph - N/A   Overcast
10:53 PM 60.1 °F 53.1 °F 78% 29.83 in 10.0 mi NNW 21.9 mph 25.3 mph N/A   Overcast
11:03 PM 59.0 °F 51.8 °F 77% 29.84 in 10.0 mi North 21.9 mph 28.8 mph N/A   Overcast
11:53 PM 57.0 °F 51.1 °F 81% 29.86 in 10.0 mi North 11.5 mph 20.7 mph N/A   Overcast